Time,TemperatureF,DewpointF,PressureIn,WindDirection,WindDirectionDegrees,WindSpeedMPH,WindSpeedGustMPH,Humidity,HourlyPrecipIn,Conditions,Clouds,dailyrainin,SoftwareType,DateUTC
2013-07-24 00:00:00,68.0,-99.9,-100.00,ENE,71,1.0,2.0,-999,-99.99,,,-99.99,,2013-07-24 06:00:00,
2013-07-24 00:53:00,68.0,-99.9,-100.00,ENE,71,1.0,2.0,-999,-99.99,,,-99.99,,2013-07-24 06:53:00,
2013-07-24 01:00:00,68.0,-99.9,-100.00,SE,129,3.0,3.0,-999,-99.99,,,-99.99,,2013-07-24 07:00:00,
2013-07-24 01:53:00,68.0,-99.9,-100.00,SE,129,3.0,3.0,-999,-99.99,,,-99.99,,2013-07-24 07:53:00,
2013-07-24 02:00:00,66.0,-99.9,-100.00,ENE,73,7.0,7.0,-999,-99.99,,,-99.99,,2013-07-24 08:00:00,
2013-07-24 02:52:00,66.0,-99.9,-100.00,ENE,73,7.0,7.0,-999,-99.99,,,-99.99,,2013-07-24 08:52:00,
2013-07-24 03:00:00,64.0,-99.9,-100.00,ESE,120,4.0,5.0,-999,-99.99,,,-99.99,,2013-07-24 09:00:00,
2013-07-24 03:53:00,64.0,-99.9,-100.00,ESE,120,4.0,5.0,-999,-99.99,,,-99.99,,2013-07-24 09:53:00,
2013-07-24 04:00:00,64.0,-99.9,-100.00,NE,46,1.0,2.0,-999,-99.99,,,-99.99,,2013-07-24 10:00:00,
2013-07-24 04:53:00,64.0,-99.9,-100.00,NE,46,1.0,2.0,-999,-99.99,,,-99.99,,2013-07-24 10:53:00,
2013-07-24 05:00:00,64.0,-99.9,-100.00,WNW,287,2.0,3.0,-999,-99.99,,,-99.99,,2013-07-24 11:00:00,
2013-07-24 05:52:00,64.0,-99.9,-100.00,WNW,287,2.0,3.0,-999,-99.99,,,-99.99,,2013-07-24 11:52:00,
2013-07-24 06:00:00,64.0,-99.9,-100.00,NW,325,3.0,3.0,-999,-99.99,,,-99.99,,2013-07-24 12:00:00,
2013-07-24 06:52:00,64.0,-99.9,-100.00,NW,325,3.0,3.0,-999,-99.99,,,-99.99,,2013-07-24 12:52:00,
2013-07-24 07:00:00,66.0,-99.9,-100.00,WSW,240,1.0,2.0,-999,-99.99,,,-99.99,,2013-07-24 13:00:00,
2013-07-24 07:53:00,66.0,-99.9,-100.00,WSW,240,1.0,2.0,-999,-99.99,,,-99.99,,2013-07-24 13:53:00,
2013-07-24 08:00:00,68.0,-99.9,-100.00,West,270,2.0,5.0,-999,-99.99,,,-99.99,,2013-07-24 14:00:00,
2013-07-24 08:55:00,68.0,-99.9,-100.00,West,270,2.0,5.0,-999,-99.99,,,-99.99,,2013-07-24 14:55:00,
2013-07-24 09:00:00,71.0,-99.9,-100.00,South,187,6.0,8.0,-999,-99.99,,,-99.99,,2013-07-24 15:00:00,
2013-07-24 09:53:00,71.0,-99.9,-100.00,South,187,6.0,8.0,-999,-99.99,,,-99.99,,2013-07-24 15:53:00,
2013-07-24 10:00:00,75.0,-99.9,-100.00,SSE,150,7.0,9.0,-999,-99.99,,,-99.99,,2013-07-24 16:00:00,
2013-07-24 10:53:00,75.0,-99.9,-100.00,SSE,150,7.0,9.0,-999,-99.99,,,-99.99,,2013-07-24 16:53:00,
2013-07-24 11:00:00,78.0,-99.9,-100.00,SE,136,8.0,14.0,-999,-99.99,,,-99.99,,2013-07-24 17:00:00,
2013-07-24 11:53:00,78.0,-99.9,-100.00,SE,136,8.0,14.0,-999,-99.99,,,-99.99,,2013-07-24 17:53:00,
2013-07-24 13:00:00,86.0,-99.9,-100.00,SSE,155,10.0,15.0,-999,-99.99,,,-99.99,,2013-07-24 19:00:00,
2013-07-24 13:53:00,86.0,-99.9,-100.00,SSE,155,10.0,15.0,-999,-99.99,,,-99.99,,2013-07-24 19:53:00,
2013-07-24 14:00:00,86.0,-99.9,-100.00,South,185,3.0,11.0,-999,-99.99,,,-99.99,,2013-07-24 20:00:00,
2013-07-24 14:53:00,86.0,-99.9,-100.00,South,185,3.0,11.0,-999,-99.99,,,-99.99,,2013-07-24 20:53:00,
2013-07-24 15:00:00,84.0,-99.9,-100.00,SE,130,6.0,10.0,-999,-99.99,,,-99.99,,2013-07-24 21:00:00,
2013-07-24 15:53:00,84.0,-99.9,-100.00,SE,130,6.0,10.0,-999,-99.99,,,-99.99,,2013-07-24 21:53:00,
2013-07-24 16:00:00,82.0,-99.9,-100.00,SSE,163,4.0,7.0,-999,-99.99,,,-99.99,,2013-07-24 22:00:00,
2013-07-24 16:53:00,82.0,-99.9,-100.00,SSE,163,4.0,7.0,-999,-99.99,,,-99.99,,2013-07-24 22:53:00,
2013-07-24 17:00:00,82.0,-99.9,-100.00,SSE,164,2.0,6.0,-999,-99.99,,,-99.99,,2013-07-24 23:00:00,
2013-07-24 17:52:00,82.0,-99.9,-100.00,SSE,164,2.0,6.0,-999,-99.99,,,-99.99,,2013-07-24 23:52:00,
2013-07-24 18:00:00,69.0,-99.9,-100.00,NE,56,26.0,41.0,-999,-99.99,,,-99.99,,2013-07-25 00:00:00,
2013-07-24 18:53:00,69.0,-99.9,-100.00,NE,56,26.0,41.0,-999,-99.99,,,-99.99,,2013-07-25 00:53:00,
2013-07-24 19:00:00,69.0,-99.9,-100.00,NE,43,30.0,32.0,-999,-99.99,,,-99.99,,2013-07-25 01:00:00,
2013-07-24 19:53:00,69.0,-99.9,-100.00,NE,43,30.0,32.0,-999,-99.99,,,-99.99,,2013-07-25 01:53:00,
2013-07-24 20:00:00,66.0,-99.9,-100.00,NE,48,13.0,21.0,-999,-99.99,,,-99.99,,2013-07-25 02:00:00,
2013-07-24 20:53:00,66.0,-99.9,-100.00,NE,48,13.0,21.0,-999,-99.99,,,-99.99,,2013-07-25 02:53:00,
2013-07-24 21:00:00,66.0,-99.9,-100.00,South,190,10.0,15.0,-999,-99.99,,,-99.99,,2013-07-25 03:00:00,
2013-07-24 21:53:00,66.0,-99.9,-100.00,South,190,10.0,15.0,-999,-99.99,,,-99.99,,2013-07-25 03:53:00,
2013-07-24 22:00:00,64.0,-99.9,-100.00,WSW,247,17.0,21.0,-999,-99.99,,,-99.99,,2013-07-25 04:00:00,
2013-07-24 22:53:00,64.0,-99.9,-100.00,WSW,247,17.0,21.0,-999,-99.99,,,-99.99,,2013-07-25 04:53:00,
2013-07-24 23:00:00,62.0,-99.9,-100.00,SSW,206,13.0,14.0,-999,-99.99,,,-99.99,,2013-07-25 05:00:00,
2013-07-24 23:52:00,62.0,-99.9,-100.00,SSW,206,13.0,14.0,-999,-99.99,,,-99.99,,2013-07-25 05:52:00,